START_TIME,STEP,MOV.,M6,t_acc.,M7,t_acc.,M19,t_acc.,H36,t_acc.
1979-07-26 15:00:26.420 ,1,0,0.,12.0,0.,12.0,0.,12.0,0.,12.0
1979-07-26 15:00:38.420 ,1,0,0.,12.0,0.,12.0,0.,12.0,0.,12.0
1979-07-26 15:00:50.420 ,2,1,0.,12.0,0.,12.0,0.,12.0,0.,12.0
1979-07-26 15:01:02.420 ,2,1,0.,12.0,0.,12.0,0.,12.0,0.,12.0
1979-07-26 15:01:14.420 ,2,0,0.,12.0,0.,12.0,0.,12.0,0.,12.0
1979-07-26 15:01:26.420 ,2,0,0.,12.0,0.,12.0,0.,12.0,0.,12.0
1979-07-26 15:01:38.420 ,3,1,0.,12.0,0.,12.0,0.,12.0,0.,12.0
1979-07-26 15:01:50.420 ,3,1,0.,12.0,0.,12.0,0.,12.0,0.,12.0
1979-07-26 15:02:02.420 ,3,0,0.,12.0,0.,12.0,0.,12.0,0.,12.0
1979-07-26 15:02:14.420 ,3,0,0.,12.0,0.,12.0,0.,12.0,0.,12.0
1979-07-26 15:02:26.420 ,4,1,0.,12.0,0.,12.0,0.,12.0,0.,12.0
1979-07-26 15:02:38.420 ,4,1,0.,12.0,0.,12.0,0.,12.0,0.,12.0
1979-07-26 15:02:50.420 ,4,0,0.,12.0,0.,12.0,0.,12.0,0.,12.0
1979-07-26 15:03:02.420 ,4,0,0.,12.0,0.,12.0,0.,12.0,0.,12.0
1979-07-26 15:03:14.420 ,5,1,0.,12.0,0.,12.0,0.,12.0,0.,12.0
1979-07-26 15:03:26.420 ,5,1,0.,12.0,0.,12.0,0.,12.0,0.,12.0
1979-07-26 15:03:38.420 ,5,0,0.,12.0,0.,12.0,0.,12.0,0.,12.0
1979-07-26 15:03:50.420 ,5,0,0.,12.0,0.,12.0,0.,12.0,0.,12.0
1979-07-26 15:04:02.420 ,6,1,0.,12.0,0.,12.0,0.,12.0,0.,12.0
1979-07-26 15:04:14.420 ,6,1,0.,12.0,0.,12.0,0.,12.0,0.,12.0
1979-07-26 15:04:26.420 ,6,0,0.,12.0,0.,12.0,0.,12.0,0.,12.0
1979-07-26 15:04:38.420 ,6,0,0.,12.0,0.,12.0,0.,12.0,0.,12.0
1979-07-26 15:04:50.420 ,7,1,0.,12.0,0.,12.0,0.,12.0,0.,12.0
1979-07-26 15:05:02.420 ,7,1,0.,12.0,0.,12.0,0.,12.0,0.,12.0
1979-07-26 15:05:14.420 ,7,0,0.,12.0,0.,12.0,0.,12.0,0.,12.0
1979-07-26 15:05:26.420 ,7,0,0.,12.0,0.,12.0,0.,12.0,0.,12.0
1979-07-26 15:05:38.420 ,7,1,0.,12.0,0.,12.0,0.,12.0,0.,12.0
1979-07-26 15:05:50.420 ,7,1,0.,12.0,0.,12.0,0.,12.0,0.,12.0
1979-07-26 15:06:02.420 ,7,0,0.,12.0,0.,12.0,0.,12.0,0.,12.0
1979-07-26 15:06:14.420 ,7,0,0.,12.0,0.,12.0,0.,12.0,0.,12.0
1979-07-26 15:06:26.420 ,6,1,0.,12.0,0.,12.0,0.,12.0,0.,12.0
1979-07-26 15:06:38.420 ,6,1,0.,12.0,0.,12.0,0.,12.0,0.,12.0
1979-07-26 15:06:50.420 ,6,0,0.,12.0,0.,12.0,0.,12.0,0.,12.0
1979-07-26 15:07:02.420 ,6,0,0.,12.0,0.,12.0,0.,12.0,0.,12.0
1979-07-26 15:07:14.420 ,5,1,0.,12.0,0.,12.0,0.,12.0,0.,12.0
1979-07-26 15:07:26.420 ,5,1,0.,12.0,0.,12.0,0.,12.0,0.,12.0
1979-07-26 15:07:38.420 ,5,0,0.,12.0,0.,12.0,0.,12.0,0.,12.0
1979-07-26 15:07:50.420 ,5,0,0.,12.0,0.,12.0,0.,12.0,0.,12.0
1979-07-26 15:08:02.420 ,4,1,0.,12.0,0.,12.0,0.,12.0,0.,12.0
1979-07-26 15:08:14.420 ,4,1,0.,12.0,0.,12.0,0.,12.0,0.,12.0
1979-07-26 15:08:26.420 ,4,0,0.,12.0,0.,12.0,0.,12.0,0.,12.0
1979-07-26 15:08:38.420 ,4,0,0.,12.0,0.,12.0,0.,12.0,0.,12.0
1979-07-26 15:08:50.420 ,3,1,0.,12.0,0.,12.0,0.,12.0,0.,12.0
1979-07-26 15:09:02.420 ,3,1,0.,12.0,0.,12.0,0.,12.0,0.,12.0
1979-07-26 15:09:14.420 ,3,0,0.,12.0,0.,12.0,0.,12.0,0.,12.0
1979-07-26 15:09:26.420 ,3,0,0.,12.0,0.,12.0,0.,12.0,0.,12.0
1979-07-26 15:09:38.420 ,2,1,0.,12.0,0.,12.0,0.,12.0,0.,12.0
1979-07-26 15:09:50.420 ,2,1,0.,12.0,0.,12.0,0.,12.0,0.,12.0
1979-07-26 15:10:02.420 ,2,0,0.,12.0,0.,12.0,0.,12.0,0.,12.0
1979-07-26 15:10:14.420 ,2,0,0.,12.0,0.,12.0,0.,12.0,0.,12.0
1979-07-26 15:10:26.420 ,1,1,0.,12.0,0.,12.0,0.,12.0,0.,12.0
1979-07-26 15:10:38.420 ,1,1,0.,12.0,0.,12.0,0.,12.0,0.,12.0
1979-07-26 15:10:50.420 ,1,0,0.,12.0,0.,12.0,0.,12.0,0.,12.0
1979-07-26 15:11:02.420 ,1,0,0.,12.0,0.,12.0,0.,12.0,0.,12.0
1979-07-26 15:11:14.420 ,0,1,0.,12.0,0.,12.0,0.,12.0,0.,12.0
1979-07-26 15:11:26.420 ,0,1,0.,12.0,0.,12.0,0.,12.0,0.,12.0
1979-07-26 15:11:38.420 ,0,0,0.,12.0,0.,12.0,0.,12.0,0.,12.0
1979-07-26 15:11:50.420 ,0,0,0.,12.0,0.,12.0,0.,12.0,0.,12.0
1979-07-26 15:12:02.420 ,0,1,0.,12.0,0.,12.0,0.,12.0,0.,12.0
1979-07-26 15:12:14.420 ,0,1,0.,12.0,0.,12.0,0.,12.0,0.,12.0
1979-07-26 15:12:26.420 ,0,0,0.,12.0,0.,12.0,0.,12.0,0.,12.0
1979-07-26 15:12:38.420 ,0,0,0.,12.0,0.,12.0,0.,12.0,0.,12.0
1979-07-26 15:12:50.420 ,1,1,0.,12.0,0.,12.0,0.,12.0,0.,12.0
1979-07-26 15:13:02.420 ,1,1,0.,12.0,0.,12.0,0.,12.0,0.,12.0
1979-07-26 15:13:14.420 ,1,0,0.,12.0,0.,12.0,0.,12.0,0.,12.0
1979-07-26 15:13:26.420 ,1,0,0.,12.0,0.,12.0,0.,12.0,0.,12.0
1979-07-26 15:13:38.420 ,2,1,0.,12.0,0.,12.0,0.,12.0,0.,12.0
1979-07-26 15:13:50.420 ,2,1,0.,12.0,0.,12.0,0.,12.0,0.,12.0
1979-07-26 15:14:02.420 ,2,0,0.,12.0,0.,12.0,0.,12.0,0.,12.0
1979-07-26 15:14:14.420 ,2,0,0.,12.0,0.,12.0,0.,12.0,0.,12.0
1979-07-26 15:14:26.420 ,3,1,0.,12.0,0.,12.0,0.,12.0,0.,12.0
1979-07-26 15:14:38.420 ,3,1,0.,12.0,0.,12.0,0.,12.0,0.,12.0
1979-07-26 15:14:50.420 ,3,0,0.,12.0,0.,12.0,0.,12.0,0.,12.0
1979-07-26 15:15:02.420 ,3,0,0.,12.0,0.,12.0,0.,12.0,0.,12.0
1979-07-26 15:15:14.420 ,4,1,0.,12.0,0.,12.0,0.,12.0,0.,12.0
1979-07-26 15:15:26.420 ,4,1,0.,12.0,0.,12.0,0.,12.0,0.,12.0
1979-07-26 15:15:38.420 ,4,0,0.,12.0,0.,12.0,0.,12.0,0.,12.0
1979-07-26 15:15:50.420 ,4,0,0.,12.0,0.,12.0,0.,12.0,0.,12.0
1979-07-26 15:16:02.420 ,5,1,0.,12.0,0.,12.0,0.,12.0,0.,12.0
1979-07-26 15:16:14.420 ,5,1,0.,12.0,0.,12.0,0.,12.0,0.,12.0
1979-07-26 15:16:26.420 ,5,0,0.,12.0,0.,12.0,0.,12.0,0.,12.0
1979-07-26 15:16:38.420 ,5,0,0.,12.0,0.,12.0,0.,12.0,0.,12.0
1979-07-26 15:16:50.420 ,6,1,0.,12.0,0.,12.0,0.,12.0,0.,12.0
1979-07-26 15:17:02.420 ,6,1,0.,12.0,0.,12.0,0.,12.0,0.,12.0
1979-07-26 15:17:14.420 ,6,0,0.,12.0,0.,12.0,0.,12.0,0.,12.0
1979-07-26 15:17:26.420 ,6,0,0.,12.0,0.,12.0,0.,12.0,0.,12.0
1979-07-26 15:17:38.420 ,7,1,0.,12.0,0.,12.0,0.,12.0,0.,12.0
1979-07-26 15:17:50.420 ,7,1,0.,12.0,0.,12.0,0.,12.0,0.,12.0
1979-07-26 15:18:02.420 ,7,0,0.,12.0,0.,12.0,0.,12.0,0.,12.0
1979-07-26 15:18:14.420 ,7,0,0.,12.0,0.,12.0,0.,12.0,0.,12.0
1979-07-26 15:18:26.420 ,7,1,0.,12.0,0.,12.0,0.,12.0,0.,12.0
1979-07-26 15:18:38.420 ,7,1,0.,12.0,0.,12.0,0.,12.0,0.,12.0
1979-07-26 15:18:50.420 ,7,0,0.,12.0,0.,12.0,0.,12.0,0.,12.0
1979-07-26 15:19:02.420 ,7,0,0.,12.0,0.,12.0,0.,12.0,0.,12.0
1979-07-26 15:19:14.420 ,6,1,0.,12.0,0.,12.0,0.,12.0,0.,12.0
1979-07-26 15:19:26.420 ,6,1,0.,12.0,0.,12.0,0.,12.0,0.,12.0
1979-07-26 15:19:38.420 ,6,0,0.,12.0,0.,12.0,0.,12.0,0.,12.0
1979-07-26 15:19:50.420 ,6,0,0.,12.0,0.,12.0,0.,12.0,0.,12.0
1979-07-26 15:20:02.420 ,5,1,0.,12.0,0.,12.0,0.,12.0,0.,12.0
1979-07-26 15:20:14.420 ,5,1,0.,12.0,0.,12.0,0.,12.0,0.,12.0
1979-07-26 15:20:26.420 ,5,0,0.,12.0,0.,12.0,0.,12.0,0.,12.0
1979-07-26 15:20:38.420 ,5,0,0.,12.0,0.,12.0,0.,12.0,0.,12.0
1979-07-26 15:20:50.420 ,4,1,0.,12.0,0.,12.0,0.,12.0,0.,12.0
1979-07-26 15:21:02.420 ,4,1,0.,12.0,0.,12.0,0.,12.0,0.,12.0
1979-07-26 15:21:14.420 ,4,0,0.,12.0,0.,12.0,0.,12.0,0.,12.0
1979-07-26 15:21:26.420 ,4,0,0.,12.0,0.,12.0,0.,12.0,0.,12.0
1979-07-26 15:21:38.420 ,3,1,0.,12.0,0.,12.0,0.,12.0,0.,12.0
1979-07-26 15:21:50.420 ,3,1,0.,12.0,0.,12.0,0.,12.0,0.,12.0
1979-07-26 15:22:02.420 ,3,0,0.,12.0,0.,12.0,0.,12.0,0.,12.0
1979-07-26 15:22:14.420 ,3,0,0.,12.0,0.,12.0,0.,12.0,0.,12.0
1979-07-26 15:22:26.420 ,2,1,0.,12.0,0.,12.0,0.,12.0,0.,12.0
1979-07-26 15:22:38.420 ,2,1,0.,12.0,0.,12.0,0.,12.0,0.,12.0
1979-07-26 15:22:50.420 ,2,0,0.,12.0,0.,12.0,0.,12.0,0.,12.0
1979-07-26 15:23:02.420 ,2,0,0.,12.0,0.,12.0,0.,12.0,0.,12.0
1979-07-26 15:23:14.420 ,1,1,0.,12.0,0.,12.0,0.,12.0,0.,12.0
1979-07-26 15:23:26.420 ,1,1,0.,12.0,0.,12.0,0.,12.0,0.,12.0
1979-07-26 15:23:38.420 ,1,0,0.,12.0,0.,12.0,0.,12.0,0.,12.0
1979-07-26 15:23:50.420 ,1,0,0.,12.0,0.,12.0,0.,12.0,0.,12.0
1979-07-26 15:24:02.420 ,0,1,0.,12.0,0.,12.0,0.,12.0,0.,12.0
1979-07-26 15:24:14.420 ,0,1,0.,12.0,0.,12.0,0.,12.0,0.,12.0
1979-07-26 15:24:26.420 ,0,0,0.,12.0,0.,12.0,0.,12.0,0.,12.0
1979-07-26 15:24:38.420 ,0,0,0.,12.0,0.,12.0,0.,12.0,0.,12.0
1979-07-26 15:24:50.420 ,0,1,0.,12.0,0.,12.0,0.,12.0,0.,12.0
1979-07-26 15:25:02.420 ,0,1,0.,12.0,0.,12.0,0.,12.0,0.,12.0
1979-07-26 15:25:14.420 ,0,0,0.,12.0,0.,12.0,0.,12.0,0.,12.0
1979-07-26 15:25:26.420 ,0,0,0.,12.0,0.,12.0,0.,12.0,0.,12.0
1979-07-26 15:25:38.420 ,1,1,0.,12.0,0.,12.0,0.,12.0,0.,12.0
1979-07-26 15:25:50.420 ,1,1,0.,12.0,0.,12.0,0.,12.0,0.,12.0
1979-07-26 15:26:02.420 ,1,0,0.,12.0,0.,12.0,0.,12.0,0.,12.0
1979-07-26 15:26:14.420 ,1,0,0.,12.0,0.,12.0,0.,12.0,0.,12.0
1979-07-26 15:26:26.420 ,2,1,0.,12.0,0.,12.0,0.,12.0,0.,12.0
1979-07-26 15:26:38.420 ,2,1,0.,12.0,0.,12.0,0.,12.0,0.,12.0
1979-07-26 15:26:50.420 ,2,0,0.,12.0,0.,12.0,0.,12.0,0.,12.0
1979-07-26 15:27:02.420 ,2,0,0.,12.0,0.,12.0,0.,12.0,0.,12.0
1979-07-26 15:27:14.420 ,3,1,0.,12.0,0.,12.0,0.,12.0,0.,12.0
1979-07-26 15:27:26.420 ,3,1,0.,12.0,0.,12.0,0.,12.0,0.,12.0
1979-07-26 15:27:38.420 ,3,0,0.,12.0,0.,12.0,0.,12.0,0.,12.0
1979-07-26 15:27:50.420 ,3,0,0.,12.0,0.,12.0,0.,12.0,0.,12.0
1979-07-26 15:28:02.420 ,4,1,0.,12.0,0.,12.0,0.,12.0,0.,12.0
1979-07-26 15:28:14.420 ,4,1,0.,12.0,0.,12.0,0.,12.0,0.,12.0
1979-07-26 15:28:26.420 ,4,0,0.,12.0,0.,12.0,0.,12.0,0.,12.0
1979-07-26 15:28:38.420 ,4,0,0.,12.0,0.,12.0,0.,12.0,0.,12.0
1979-07-26 15:28:50.420 ,5,1,0.,12.0,0.,12.0,0.,12.0,0.,12.0
1979-07-26 15:29:02.420 ,5,1,0.,12.0,0.,12.0,0.,12.0,0.,12.0
1979-07-26 15:29:14.420 ,5,0,0.,12.0,0.,12.0,0.,12.0,0.,12.0
1979-07-26 15:29:26.420 ,5,0,0.,12.0,0.,12.0,0.,12.0,0.,12.0
1979-07-26 15:29:38.420 ,6,1,0.,12.0,0.,12.0,0.,12.0,0.,12.0
1979-07-26 15:29:50.420 ,6,1,0.,12.0,0.,12.0,0.,12.0,0.,12.0
1979-07-26 15:30:02.420 ,6,0,0.,12.0,0.,12.0,0.,12.0,0.,12.0
1979-07-26 15:30:14.420 ,6,0,0.,12.0,0.,12.0,0.,12.0,0.,12.0
1979-07-26 15:30:26.420 ,7,0,0.,12.0,0.,12.0,0.,12.0,0.,12.0
1979-07-26 15:30:38.420 ,7,0,0.,12.0,0.,12.0,0.,12.0,0.,12.0
1979-07-26 15:30:50.420 ,7,0,0.,12.0,0.,12.0,0.,12.0,0.,12.0
1979-07-26 15:31:02.420 ,7,0,0.,12.0,0.,12.0,0.,12.0,0.,12.0
1979-07-26 15:31:14.420 ,4,1,0.,12.0,0.,12.0,0.,12.0,0.,12.0
1979-07-26 15:31:26.420 ,4,1,0.,12.0,0.,12.0,0.,12.0,0.,12.0
1979-07-26 15:31:38.420 ,0,1,0.,12.0,0.,12.0,0.,12.0,0.,12.0
1979-07-26 15:31:50.420 ,0,1,0.,12.0,0.,12.0,0.,12.0,0.,12.0
1979-07-26 15:32:02.420 ,3,1,0.,12.0,0.,12.0,0.,12.0,0.,12.0
1979-07-26 15:32:14.420 ,3,1,0.,12.0,0.,12.0,0.,12.0,0.,12.0
1979-07-26 15:32:26.420 ,7,1,0.,12.0,0.,12.0,0.,12.0,0.,12.0
1979-07-26 15:32:38.420 ,7,1,0.,12.0,0.,12.0,0.,12.0,0.,12.0
1979-07-26 15:32:50.420 ,4,1,0.,12.0,0.,12.0,0.,12.0,0.,12.0
1979-07-26 15:33:02.420 ,4,1,0.,12.0,0.,12.0,0.,12.0,0.,12.0
1979-07-26 15:33:14.420 ,0,1,0.,12.0,0.,12.0,0.,12.0,0.,12.0
1979-07-26 15:33:26.420 ,0,1,0.,12.0,0.,12.0,0.,12.0,0.,12.0
1979-07-26 15:33:38.420 ,3,1,0.,12.0,0.,12.0,0.,12.0,0.,12.0
1979-07-26 15:33:50.420 ,3,1,0.,12.0,0.,12.0,0.,12.0,0.,12.0
1979-07-26 15:34:02.420 ,7,1,0.,12.0,0.,12.0,0.,12.0,0.,12.0
1979-07-26 15:34:14.420 ,7,1,0.,12.0,0.,12.0,0.,12.0,0.,12.0
1979-07-26 15:34:26.420 ,4,1,0.,12.0,0.,12.0,0.,12.0,0.,12.0
1979-07-26 15:34:38.420 ,4,1,0.,12.0,0.,12.0,0.,12.0,0.,12.0
1979-07-26 15:34:50.420 ,0,1,0.,12.0,0.,12.0,0.,12.0,0.,12.0
1979-07-26 15:35:02.420 ,0,1,0.,12.0,0.,12.0,0.,12.0,0.,12.0
1979-07-26 15:35:14.420 ,3,1,0.,12.0,0.,12.0,0.,12.0,0.,12.0
1979-07-26 15:35:26.420 ,3,1,0.,12.0,0.,12.0,0.,12.0,0.,12.0
1979-07-26 15:35:38.420 ,7,1,0.,12.0,0.,12.0,0.,12.0,0.,12.0
1979-07-26 15:35:50.420 ,7,1,0.,12.0,0.,12.0,0.,12.0,0.,12.0
1979-07-26 15:36:02.420 ,4,1,0.,12.0,0.,12.0,0.,12.0,0.,12.0
1979-07-26 15:36:14.420 ,4,1,0.,12.0,0.,12.0,0.,12.0,0.,12.0
1979-07-26 15:36:26.420 ,0,1,0.,12.0,0.,12.0,0.,12.0,0.,12.0
1979-07-26 15:36:38.420 ,0,1,0.,12.0,0.,12.0,0.,12.0,0.,12.0
1979-07-26 15:36:50.420 ,3,1,0.,12.0,0.,12.0,0.,12.0,0.,12.0
1979-07-26 15:37:02.420 ,3,1,0.,12.0,0.,12.0,0.,12.0,0.,12.0
1979-07-26 15:37:14.420 ,7,1,0.,12.0,0.,12.0,0.,12.0,0.,12.0
1979-07-26 15:37:26.420 ,7,1,0.,12.0,0.,12.0,0.,12.0,0.,12.0
1979-07-26 15:37:38.420 ,4,1,0.,12.0,0.,12.0,0.,12.0,0.,12.0
1979-07-26 15:37:50.420 ,4,1,0.,12.0,0.,12.0,0.,12.0,0.,12.0
1979-07-26 15:38:02.420 ,0,1,0.,12.0,0.,12.0,0.,12.0,0.,12.0
1979-07-26 15:38:14.420 ,0,1,0.,12.0,0.,12.0,0.,12.0,0.,12.0
1979-07-26 15:38:26.420 ,3,1,0.,12.0,0.,12.0,0.,12.0,0.,12.0
1979-07-26 15:38:38.420 ,3,1,0.,12.0,0.,12.0,0.,12.0,0.,12.0
1979-07-26 15:38:50.420 ,7,1,0.,12.0,0.,12.0,0.,12.0,0.,12.0
1979-07-26 15:39:02.420 ,7,1,0.,12.0,0.,12.0,0.,12.0,0.,12.0
1979-07-26 15:39:14.420 ,4,1,0.,12.0,0.,12.0,0.,12.0,0.,12.0
1979-07-26 15:39:26.420 ,4,1,0.,12.0,0.,12.0,0.,12.0,0.,12.0
1979-07-26 15:39:38.420 ,0,1,0.,12.0,0.,12.0,0.,12.0,0.,12.0
1979-07-26 15:39:50.420 ,0,1,0.,12.0,0.,12.0,0.,12.0,0.,12.0
1979-07-26 15:40:02.420 ,3,1,0.,12.0,0.,12.0,0.,12.0,0.,12.0
1979-07-26 15:40:14.420 ,3,1,0.,12.0,0.,12.0,0.,12.0,0.,12.0
1979-07-26 15:40:26.420 ,7,1,0.,12.0,0.,12.0,0.,12.0,0.,12.0
1979-07-26 15:40:38.420 ,7,1,0.,12.0,0.,12.0,0.,12.0,0.,12.0
1979-07-26 15:40:50.420 ,4,1,0.,12.0,0.,12.0,0.,12.0,0.,12.0
1979-07-26 15:41:02.420 ,4,1,0.,12.0,0.,12.0,0.,12.0,0.,12.0
1979-07-26 15:41:14.420 ,0,1,0.,12.0,0.,12.0,0.,12.0,0.,12.0
1979-07-26 15:41:26.420 ,0,1,0.,12.0,0.,12.0,0.,12.0,0.,12.0
1979-07-26 15:41:38.420 ,0,0,0.,12.0,0.,12.0,0.,12.0,0.,12.0
1979-07-26 15:41:50.420 ,0,0,0.,12.0,0.,12.0,0.,12.0,0.,12.0
1979-07-26 15:42:02.420 ,0,0,0.,12.0,0.,12.0,0.,12.0,0.,12.0
1979-07-26 15:42:14.420 ,0,0,0.,12.0,0.,12.0,0.,12.0,0.,12.0
1979-07-26 15:42:26.420 ,5,1,0.,12.0,0.,12.0,0.,12.0,0.,12.0
1979-07-26 15:42:38.420 ,5,1,0.,12.0,0.,12.0,0.,12.0,0.,12.0
1979-07-26 15:42:50.420 ,5,0,0.,12.0,0.,12.0,0.,12.0,0.,12.0
1979-07-26 15:43:02.420 ,5,0,0.,12.0,0.,12.0,0.,12.0,0.,12.0
1979-07-26 15:43:14.420 ,4,1,0.,12.0,0.,12.0,0.,12.0,0.,12.0
1979-07-26 15:43:26.420 ,4,1,0.,12.0,0.,12.0,0.,12.0,0.,12.0
1979-07-26 15:43:38.420 ,4,0,0.,12.0,0.,12.0,0.,12.0,0.,12.0
1979-07-26 15:43:50.420 ,4,0,0.,12.0,0.,12.0,0.,12.0,0.,12.0
1979-07-26 15:44:02.420 ,3,1,0.,12.0,0.,12.0,0.,12.0,0.,12.0
1979-07-26 15:44:14.420 ,3,1,0.,12.0,0.,12.0,0.,12.0,0.,12.0
1979-07-26 15:44:26.420 ,3,0,0.,12.0,0.,12.0,0.,12.0,0.,12.0
1979-07-26 15:44:38.420 ,3,0,0.,12.0,0.,12.0,0.,12.0,0.,12.0
1979-07-26 15:44:50.420 ,2,1,0.,12.0,0.,12.0,0.,12.0,0.,12.0
1979-07-26 15:45:02.420 ,2,1,0.,12.0,0.,12.0,0.,12.0,0.,12.0
1979-07-26 15:45:14.420 ,2,0,0.,12.0,0.,12.0,0.,12.0,0.,12.0
1979-07-26 15:45:26.420 ,2,0,0.,12.0,0.,12.0,0.,12.0,0.,12.0
1979-07-26 15:45:38.420 ,1,1,0.,12.0,0.,12.0,0.,12.0,0.,12.0
1979-07-26 15:45:50.420 ,1,1,0.,12.0,0.,12.0,0.,12.0,0.,12.0
1979-07-26 15:46:02.420 ,1,0,0.,12.0,0.,12.0,0.,12.0,0.,12.0
1979-07-26 15:46:14.420 ,1,0,0.,12.0,0.,12.0,0.,12.0,0.,12.0
1979-07-26 15:46:26.420 ,0,1,0.,12.0,0.,12.0,0.,12.0,0.,12.0
1979-07-26 15:46:38.420 ,0,1,0.,12.0,0.,12.0,0.,12.0,0.,12.0
1979-07-26 15:46:50.420 ,0,0,0.,12.0,0.,12.0,0.,12.0,0.,12.0
1979-07-26 15:47:02.420 ,0,0,0.,12.0,0.,12.0,0.,12.0,0.,12.0
1979-07-26 15:47:14.420 ,0,1,0.,12.0,0.,12.0,0.,12.0,0.,12.0
1979-07-26 15:47:26.420 ,0,1,1.,12.0,0.,12.0,0.,12.0,0.,12.0
1979-07-26 15:47:38.420 ,0,0,0.,12.0,0.,12.0,0.,12.0,0.,12.0
1979-07-26 15:47:50.420 ,0,0,0.,12.0,0.,12.0,0.,12.0,0.,12.0
1979-07-26 15:48:02.420 ,1,1,0.,12.0,0.,12.0,0.,12.0,0.,12.0
1979-07-26 15:48:14.420 ,1,1,0.,12.0,0.,12.0,0.,12.0,0.,12.0
1979-07-26 15:48:26.420 ,1,0,0.,12.0,0.,12.0,0.,12.0,0.,12.0
1979-07-26 15:48:38.420 ,1,0,0.,12.0,0.,12.0,0.,12.0,0.,12.0
1979-07-26 15:48:50.420 ,2,1,0.,12.0,0.,12.0,0.,12.0,0.,12.0
1979-07-26 15:49:02.420 ,2,1,0.,12.0,0.,12.0,0.,12.0,0.,12.0
1979-07-26 15:49:14.420 ,2,0,0.,12.0,0.,12.0,0.,12.0,0.,12.0
1979-07-26 15:49:26.420 ,2,0,0.,12.0,0.,12.0,0.,12.0,0.,12.0
1979-07-26 15:49:38.420 ,3,1,0.,12.0,0.,12.0,0.,12.0,0.,12.0
1979-07-26 15:49:50.420 ,3,1,0.,12.0,0.,12.0,0.,12.0,0.,12.0
1979-07-26 15:50:02.420 ,3,0,0.,12.0,0.,12.0,0.,12.0,0.,12.0
1979-07-26 15:50:14.420 ,3,0,0.,12.0,0.,12.0,0.,12.0,0.,12.0
1979-07-26 15:50:26.420 ,4,1,0.,12.0,0.,12.0,0.,12.0,0.,12.0
1979-07-26 15:50:38.420 ,4,1,0.,12.0,0.,12.0,0.,12.0,0.,12.0
1979-07-26 15:50:50.420 ,4,0,0.,12.0,0.,12.0,0.,12.0,0.,12.0
1979-07-26 15:51:02.420 ,4,0,0.,12.0,0.,12.0,0.,12.0,0.,12.0
1979-07-26 15:51:14.420 ,5,1,0.,12.0,0.,12.0,0.,12.0,0.,12.0
1979-07-26 15:51:26.420 ,5,1,0.,12.0,0.,12.0,0.,12.0,0.,12.0
1979-07-26 15:51:38.420 ,5,0,0.,12.0,0.,12.0,0.,12.0,0.,12.0
1979-07-26 15:51:50.420 ,5,0,0.,12.0,0.,12.0,0.,12.0,0.,12.0
1979-07-26 15:52:02.420 ,6,1,0.,12.0,0.,12.0,0.,12.0,0.,12.0
1979-07-26 15:52:14.420 ,6,1,0.,12.0,0.,12.0,0.,12.0,0.,12.0
1979-07-26 15:52:26.420 ,6,0,0.,12.0,0.,12.0,0.,12.0,0.,12.0
1979-07-26 15:52:38.420 ,6,0,0.,12.0,0.,12.0,0.,12.0,0.,12.0
1979-07-26 15:52:50.420 ,7,1,0.,12.0,0.,12.0,0.,12.0,0.,12.0
1979-07-26 15:53:02.420 ,7,1,0.,12.0,0.,12.0,0.,12.0,0.,12.0
1979-07-26 15:53:14.420 ,7,0,0.,12.0,0.,12.0,0.,12.0,0.,12.0
1979-07-26 15:53:26.420 ,7,0,0.,12.0,0.,12.0,0.,12.0,0.,12.0
1979-07-26 15:53:38.420 ,7,1,0.,12.0,0.,12.0,0.,12.0,0.,12.0
1979-07-26 15:53:50.420 ,7,1,0.,12.0,0.,12.0,0.,12.0,0.,12.0
1979-07-26 15:54:02.420 ,7,0,0.,12.0,0.,12.0,0.,12.0,0.,12.0
1979-07-26 15:54:14.420 ,7,0,0.,12.0,0.,12.0,0.,12.0,0.,12.0
1979-07-26 15:54:26.420 ,6,1,0.,12.0,0.,12.0,0.,12.0,0.,12.0
1979-07-26 15:54:38.420 ,6,1,0.,12.0,0.,12.0,0.,12.0,0.,12.0
1979-07-26 15:54:50.420 ,6,0,0.,12.0,0.,12.0,0.,12.0,0.,12.0
1979-07-26 15:55:02.420 ,6,0,0.,12.0,0.,12.0,0.,12.0,0.,12.0
1979-07-26 15:55:14.420 ,5,1,0.,12.0,0.,12.0,0.,12.0,0.,12.0
1979-07-26 15:55:26.420 ,5,1,0.,12.0,0.,12.0,0.,12.0,0.,12.0
1979-07-26 15:55:38.420 ,5,0,0.,12.0,0.,12.0,0.,12.0,0.,12.0
1979-07-26 15:55:50.420 ,5,0,0.,12.0,0.,12.0,0.,12.0,0.,12.0
1979-07-26 15:56:02.420 ,4,1,0.,12.0,0.,12.0,0.,12.0,0.,12.0
1979-07-26 15:56:14.420 ,4,1,0.,12.0,0.,12.0,0.,12.0,0.,12.0
1979-07-26 15:56:26.420 ,4,0,0.,12.0,0.,12.0,0.,12.0,0.,12.0
1979-07-26 15:56:38.420 ,4,0,0.,12.0,0.,12.0,0.,12.0,0.,12.0
1979-07-26 15:56:50.420 ,3,1,0.,12.0,0.,12.0,0.,12.0,0.,12.0
1979-07-26 15:57:02.420 ,3,1,0.,12.0,0.,12.0,0.,12.0,0.,12.0
1979-07-26 15:57:14.420 ,3,0,0.,12.0,0.,12.0,0.,12.0,0.,12.0
1979-07-26 15:57:26.420 ,3,0,0.,12.0,0.,12.0,0.,12.0,0.,12.0
1979-07-26 15:57:38.420 ,2,1,0.,12.0,0.,12.0,0.,12.0,0.,12.0
1979-07-26 15:57:50.420 ,2,1,0.,12.0,0.,12.0,0.,12.0,0.,12.0
1979-07-26 15:58:02.420 ,2,0,0.,12.0,0.,12.0,0.,12.0,0.,12.0
1979-07-26 15:58:14.420 ,2,0,0.,12.0,0.,12.0,0.,12.0,0.,12.0
1979-07-26 15:58:26.420 ,1,1,0.,12.0,0.,12.0,0.,12.0,0.,12.0
1979-07-26 15:58:38.420 ,1,1,0.,12.0,0.,12.0,0.,12.0,0.,12.0
1979-07-26 15:58:50.420 ,1,0,0.,12.0,0.,12.0,0.,12.0,0.,12.0
1979-07-26 15:59:02.420 ,1,0,0.,12.0,0.,12.0,0.,12.0,0.,12.0
1979-07-26 15:59:14.420 ,0,1,0.,12.0,0.,12.0,0.,12.0,0.,12.0
1979-07-26 15:59:26.420 ,0,1,0.,12.0,0.,12.0,0.,12.0,0.,12.0
1979-07-26 15:59:38.420 ,0,0,0.,12.0,0.,12.0,0.,12.0,0.,12.0
1979-07-26 15:59:50.420 ,0,0,0.,12.0,0.,12.0,0.,12.0,0.,12.0
1979-07-26 16:00:02.420 ,0,1,0.,12.0,0.,12.0,0.,12.0,0.,12.0
1979-07-26 16:00:14.420 ,0,1,0.,12.0,0.,12.0,0.,12.0,0.,12.0
1979-07-26 16:00:26.420 ,0,0,0.,12.0,0.,12.0,0.,12.0,0.,12.0
1979-07-26 16:00:38.420 ,0,0,0.,12.0,0.,12.0,0.,12.0,0.,12.0
1979-07-26 16:00:50.420 ,1,1,0.,12.0,0.,12.0,0.,12.0,0.,12.0
1979-07-26 16:01:02.420 ,1,1,0.,12.0,0.,12.0,0.,12.0,0.,12.0
1979-07-26 16:01:14.420 ,1,0,1.,12.0,0.,12.0,0.,12.0,0.,12.0
1979-07-26 16:01:26.420 ,1,0,0.,12.0,0.,12.0,0.,12.0,0.,12.0
1979-07-26 16:01:38.420 ,2,1,0.,12.0,0.,12.0,0.,12.0,0.,12.0
1979-07-26 16:01:50.420 ,2,1,0.,12.0,0.,12.0,0.,12.0,0.,12.0
1979-07-26 16:02:02.420 ,2,0,0.,12.0,0.,12.0,0.,12.0,0.,12.0
1979-07-26 16:02:14.420 ,2,0,0.,12.0,0.,12.0,0.,12.0,0.,12.0
1979-07-26 16:02:26.420 ,3,1,0.,12.0,0.,12.0,0.,12.0,0.,12.0
1979-07-26 16:02:38.420 ,3,1,0.,12.0,0.,12.0,0.,12.0,0.,12.0
1979-07-26 16:02:50.420 ,3,0,0.,12.0,0.,12.0,0.,12.0,0.,12.0
1979-07-26 16:03:02.420 ,3,0,0.,12.0,0.,12.0,0.,12.0,0.,12.0
1979-07-26 16:03:14.420 ,4,1,0.,12.0,0.,12.0,0.,12.0,0.,12.0
1979-07-26 16:03:26.420 ,4,1,0.,12.0,0.,12.0,0.,12.0,0.,12.0
1979-07-26 16:03:38.420 ,4,0,0.,12.0,0.,12.0,0.,12.0,0.,12.0
1979-07-26 16:03:50.420 ,4,0,0.,12.0,0.,12.0,0.,12.0,0.,12.0
1979-07-26 16:04:02.420 ,5,1,0.,12.0,0.,12.0,0.,12.0,0.,12.0
1979-07-26 16:04:14.420 ,5,1,0.,12.0,0.,12.0,0.,12.0,0.,12.0
1979-07-26 16:04:26.420 ,5,0,0.,12.0,0.,12.0,0.,12.0,0.,12.0
1979-07-26 16:04:38.420 ,5,0,0.,12.0,0.,12.0,0.,12.0,0.,12.0
1979-07-26 16:04:50.420 ,6,1,0.,12.0,0.,12.0,0.,12.0,0.,12.0
1979-07-26 16:05:02.420 ,6,1,0.,12.0,0.,12.0,0.,12.0,0.,12.0
1979-07-26 16:05:14.420 ,6,0,0.,12.0,0.,12.0,0.,12.0,0.,12.0
1979-07-26 16:05:26.420 ,6,0,0.,12.0,0.,12.0,0.,12.0,0.,12.0
1979-07-26 16:05:38.420 ,7,1,0.,12.0,0.,12.0,0.,12.0,0.,12.0
1979-07-26 16:05:50.420 ,7,1,0.,12.0,0.,12.0,0.,12.0,0.,12.0
1979-07-26 16:06:02.420 ,7,0,0.,12.0,0.,12.0,0.,12.0,0.,12.0
1979-07-26 16:06:14.420 ,7,0,0.,12.0,0.,12.0,0.,12.0,0.,12.0
1979-07-26 16:06:26.420 ,7,1,0.,12.0,0.,12.0,0.,12.0,0.,12.0
1979-07-26 16:06:38.420 ,7,1,0.,12.0,0.,12.0,0.,12.0,0.,12.0
1979-07-26 16:06:50.420 ,7,0,0.,12.0,0.,12.0,0.,12.0,0.,12.0
1979-07-26 16:07:02.420 ,7,0,0.,12.0,0.,12.0,0.,12.0,0.,12.0
1979-07-26 16:07:14.420 ,6,1,0.,12.0,0.,12.0,0.,12.0,0.,12.0
1979-07-26 16:07:26.420 ,6,1,0.,12.0,0.,12.0,0.,12.0,0.,12.0
1979-07-26 16:07:38.420 ,6,0,0.,12.0,0.,12.0,0.,12.0,0.,12.0
1979-07-26 16:07:50.420 ,6,0,0.,12.0,0.,12.0,0.,12.0,0.,12.0
1979-07-26 16:08:02.420 ,5,1,0.,12.0,0.,12.0,0.,12.0,0.,12.0
1979-07-26 16:08:14.420 ,5,1,0.,12.0,0.,12.0,0.,12.0,0.,12.0
1979-07-26 16:08:26.420 ,5,0,0.,12.0,0.,12.0,0.,12.0,0.,12.0
1979-07-26 16:08:38.420 ,5,0,0.,12.0,0.,12.0,0.,12.0,0.,12.0
1979-07-26 16:08:50.420 ,4,1,0.,12.0,0.,12.0,0.,12.0,0.,12.0
1979-07-26 16:09:02.420 ,4,1,0.,12.0,0.,12.0,0.,12.0,0.,12.0
1979-07-26 16:09:14.420 ,4,0,0.,12.0,0.,12.0,0.,12.0,0.,12.0
1979-07-26 16:09:26.420 ,4,0,0.,12.0,0.,12.0,0.,12.0,0.,12.0
1979-07-26 16:09:38.420 ,3,1,0.,12.0,0.,12.0,0.,12.0,0.,12.0
1979-07-26 16:09:50.420 ,3,1,0.,12.0,0.,12.0,0.,12.0,0.,12.0
1979-07-26 16:10:02.420 ,3,0,0.,12.0,0.,12.0,0.,12.0,0.,12.0
1979-07-26 16:10:14.420 ,3,0,0.,12.0,0.,12.0,0.,12.0,0.,12.0
1979-07-26 16:10:26.420 ,2,1,0.,12.0,0.,12.0,0.,12.0,0.,12.0
1979-07-26 16:10:38.420 ,2,1,0.,12.0,0.,12.0,0.,12.0,0.,12.0
1979-07-26 16:10:50.420 ,2,0,0.,12.0,0.,12.0,0.,12.0,0.,12.0
1979-07-26 16:11:02.420 ,2,0,0.,12.0,0.,12.0,0.,12.0,0.,12.0
1979-07-26 16:11:14.420 ,1,1,0.,12.0,0.,12.0,0.,12.0,0.,12.0
1979-07-26 16:11:26.420 ,1,1,0.,12.0,0.,12.0,0.,12.0,0.,12.0
1979-07-26 16:11:38.420 ,1,0,0.,12.0,0.,12.0,0.,12.0,0.,12.0
1979-07-26 16:11:50.420 ,1,0,0.,12.0,0.,12.0,0.,12.0,0.,12.0
1979-07-26 16:12:02.420 ,0,1,0.,12.0,0.,12.0,0.,12.0,0.,12.0
1979-07-26 16:12:14.420 ,0,1,0.,12.0,0.,12.0,0.,12.0,0.,12.0
1979-07-26 16:12:26.420 ,0,0,0.,12.0,0.,12.0,0.,12.0,0.,12.0
1979-07-26 16:12:38.420 ,0,0,0.,12.0,0.,12.0,0.,12.0,0.,12.0
1979-07-26 16:12:50.420 ,0,1,0.,12.0,0.,12.0,0.,12.0,0.,12.0
1979-07-26 16:13:02.420 ,0,1,0.,12.0,0.,12.0,0.,12.0,0.,12.0
1979-07-26 16:13:14.420 ,0,0,0.,12.0,0.,12.0,0.,12.0,0.,12.0
1979-07-26 16:13:26.420 ,0,0,0.,12.0,0.,12.0,0.,12.0,0.,12.0
1979-07-26 16:13:38.420 ,1,1,0.,12.0,0.,12.0,0.,12.0,0.,12.0
1979-07-26 16:13:50.420 ,1,1,0.,12.0,0.,12.0,0.,12.0,0.,12.0
1979-07-26 16:14:02.420 ,1,0,0.,12.0,0.,12.0,0.,12.0,0.,12.0
1979-07-26 16:14:14.420 ,1,0,0.,12.0,0.,12.0,0.,12.0,0.,12.0
1979-07-26 16:14:26.420 ,2,1,0.,12.0,0.,12.0,0.,12.0,0.,12.0
1979-07-26 16:14:38.420 ,2,1,0.,12.0,0.,12.0,0.,12.0,0.,12.0
1979-07-26 16:14:50.420 ,2,0,0.,12.0,0.,12.0,0.,12.0,0.,12.0
1979-07-26 16:15:02.420 ,2,0,0.,12.0,0.,12.0,0.,12.0,0.,12.0
1979-07-26 16:15:14.420 ,3,1,0.,12.0,0.,12.0,0.,12.0,0.,12.0
1979-07-26 16:15:26.420 ,3,1,0.,12.0,0.,12.0,0.,12.0,0.,12.0
1979-07-26 16:15:38.420 ,3,0,0.,12.0,0.,12.0,0.,12.0,0.,12.0
1979-07-26 16:15:50.420 ,3,0,0.,12.0,0.,12.0,0.,12.0,0.,12.0
1979-07-26 16:16:02.420 ,4,1,0.,12.0,0.,12.0,0.,12.0,0.,12.0
1979-07-26 16:16:14.420 ,4,1,0.,12.0,0.,12.0,0.,12.0,0.,12.0
1979-07-26 16:16:26.420 ,4,0,0.,12.0,0.,12.0,0.,12.0,0.,12.0
1979-07-26 16:16:38.420 ,4,0,0.,12.0,0.,12.0,0.,12.0,0.,12.0
1979-07-26 16:16:50.420 ,5,1,0.,12.0,0.,12.0,0.,12.0,0.,12.0
1979-07-26 16:17:02.420 ,5,1,0.,12.0,0.,12.0,0.,12.0,0.,12.0
1979-07-26 16:17:14.420 ,5,0,0.,12.0,0.,12.0,0.,12.0,0.,12.0
1979-07-26 16:17:26.420 ,5,0,0.,12.0,0.,12.0,0.,12.0,0.,12.0